sat.trackr.live / text

‹ back to catalog

STARLINK-35038

NORAD 65482 · 2025-195AA

PAYLOAD ACTIVE UNKNOWN

§ Identity

Operator
Country
US
Launch date
2025-09-03
Launch site
AFETR
Launch vehicle
Mass (kg)
RCS (m²)

Purposes: comms

External: N2YO · Heavens-Above · Gunter

§ Orbital elements

Epoch: 2026-05-24T17:59:59.866080Z

Period
93.85 min
Inclination
53.1580°
Eccentricity
0.0001133
Mean motion
15.34410546 rev/d
Perigee alt
461.9 km
Apogee alt
463.4 km
Semi-major
6,840.8 km
B*
7.5446e-4
RAAN
264.5237°
Arg perigee
127.6271°
Mean anomaly
232.4834°
Rev number
4,162

§ Raw data

STARLINK-350381 65482U 25195AA  26144.74999845  .00025209  00000+0  75446-3 0  99952 65482  53.1580 264.5237 0001133 127.6271 232.4834 15.34410546 41624

JSON: /api/v1/satellites/65482 · /tle

For live sub-satellite position, see the globe view (requires WebGL).

§ Visibility from observer

Set your observer location to see the next 7 days of passes ≥ 10°. The values pass through the URL so the page stays shareable.

No JS? Fill the form by hand. The geolocation button needs JavaScript.